Yuba City, California, United States (95991)
Lat: 39.14N, Lon: 121.62W
Wx Zone: CAZ016
Local Info
Past Weather Observations for Tuesday, January 20, 2015

NOTE: This archive is for the closest National Weather Service station to Yuba City. Information may differ from the station used for current weather conditions.

Click here for Long-term Archive

Time Weather Temperature Dewpoint Humidity Pressure Winds Precip Visibility
23:58
Clear
Fog And Mist
37°F / 3°C 36°F / 2°C 93% 30.12 in
(1020 mb)
Calm - 1 1/4SM
23:53
Clear
Fog And Mist
37°F / 3°C 36°F / 2°C 93% 30.12 in
(1020 mb)
Calm - 2SM
23:49
Clear
Fog And Mist
37°F / 3°C 37°F / 3°C 100% 30.12 in
(1020 mb)
Calm - 2SM
23:16
Partly Cloudy
Fog And Mist
39°F / 4°C 39°F / 4°C 100% 30.12 in
(1020 mb)
NE 3.5 mph
(NE 6 kph)
- 4SM
23:07
Partly Cloudy
Fog And Mist
39°F / 4°C 39°F / 4°C 100% 30.12 in
(1020 mb)
Calm - 2SM
23:05
Partly Cloudy
Fog And Mist
39°F / 4°C 39°F / 4°C 100% 30.12 in
(1020 mb)
Calm - 1 1/4SM
22:57
Obscured
Fog And Mist
39°F / 4°C 39°F / 4°C 100% 30.12 in
(1020 mb)
Calm - 3/4SM
22:55
Partly Cloudy
Fog And Mist
39°F / 4°C 37°F / 3°C 93% 30.12 in
(1020 mb)
Calm - 1 1/4SM
22:53
Partly Cloudy
Fog And Mist
39°F / 4°C 37°F / 3°C 93% 30.12 in
(1020 mb)
Calm - 2 1/2SM
22:48
Partly Cloudy
Fog And Mist
39°F / 4°C 37°F / 3°C 93% 30.12 in
(1020 mb)
Calm - 2SM
22:46
Obscured
Fog And Mist
39°F / 4°C 37°F / 3°C 93% 30.12 in
(1020 mb)
Calm - 1SM
22:30
Obscured
Fog
37°F / 3°C 37°F / 3°C 100% 30.12 in
(1020 mb)
Calm - 1/4SM
22:23
Clear
Fog And Mist
39°F / 4°C 37°F / 3°C 93% 30.12 in
(1020 mb)
Calm - 3/4SM
22:21
Clear
Fog And Mist
39°F / 4°C 37°F / 3°C 93% 30.09 in
(1019 mb)
Calm - 1 1/2SM
22:16
Clear
Fog And Mist
39°F / 4°C 39°F / 4°C 100% 30.09 in
(1019 mb)
Calm - 3SM
22:13
Clear
Fog And Mist
39°F / 4°C 39°F / 4°C 100% 30.09 in
(1019 mb)
Calm - 1 3/4SM
22:06
Clear
Fog
39°F / 4°C 39°F / 4°C 100% 30.09 in
(1019 mb)
Calm - 1/2SM
21:53
Obscured
Fog
39°F / 4°C 37°F / 3°C 93% 30.09 in
(1019 mb)
Calm - 1/4SM
21:38
Obscured
Fog
39°F / 4°C 39°F / 4°C 100% 30.09 in
(1019 mb)
Calm - 1/4SM
21:29
Clear
Fog
39°F / 4°C 39°F / 4°C 100% 30.09 in
(1019 mb)
Calm - 1/4SM
21:18
Clear
Fog And Mist
41°F / 5°C 39°F / 4°C 93% 30.09 in
(1019 mb)
Calm - 3/4SM
21:14
Clear
Fog And Mist
43°F / 6°C 41°F / 5°C 93% 30.09 in
(1019 mb)
Calm - 1 3/4SM
20:53
Clear
Fog And Mist
43°F / 6°C 41°F / 5°C 93% 30.09 in
(1019 mb)
Calm - 5SM
19:53
Clear
Fog And Mist
43°F / 6°C 41°F / 5°C 93% 30.09 in
(1019 mb)
Calm - 5SM
18:53
Clear
45°F / 7°C 43°F / 6°C 93% 30.09 in
(1019 mb)
E 3.5 mph
(E 6 kph)
- 8SM
17:53
Clear
48°F / 9°C 45°F / 7°C 87% 30.06 in
(1018 mb)
SE 3.5 mph
(SE 6 kph)
- 9SM
16:53
Clear
50°F / 10°C 45°F / 7°C 82% 30.06 in
(1018 mb)
SE 3.5 mph
(SE 6 kph)
- 10SM
16:31
Partly Cloudy
52°F / 11°C 45°F / 7°C 77% 30.06 in
(1018 mb)
Calm - 10SM
15:53
Overcast
54°F / 12°C 46°F / 8°C 77% 30.09 in
(1019 mb)
Calm - 10SM
14:53
Overcast
54°F / 12°C 46°F / 8°C 77% 30.09 in
(1019 mb)
E 3.5 mph
(E 6 kph)
- 10SM
14:10
Overcast
54°F / 12°C 46°F / 8°C 77% 30.09 in
(1019 mb)
Calm - 10SM
13:53
Overcast
54°F / 12°C 46°F / 8°C 77% 30.09 in
(1019 mb)
NE 3.5 mph
(NE 6 kph)
- 10SM
12:53
Overcast
52°F / 11°C 46°F / 8°C 82% 30.12 in
(1020 mb)
WNW 4.6 mph
(WNW 7 kph)
- 9SM
12:42
Overcast
52°F / 11°C 48°F / 9°C 88% 30.12 in
(1020 mb)
NW 4.6 mph
(NW 7 kph)
- 8SM
12:13
Overcast
52°F / 11°C 46°F / 8°C 82% 30.15 in
(1021 mb)
NNW 4.6 mph
(NNW 7 kph)
- 7SM
11:53
Overcast
Fog And Mist
52°F / 11°C 48°F / 9°C 88% 30.15 in
(1021 mb)
NW 3.5 mph
(NW 6 kph)
- 6SM
10:53
Overcast
Fog And Mist
52°F / 11°C 48°F / 9°C 88% 30.18 in
(1022 mb)
N 4.6 mph
(N 7 kph)
- 5SM
10:13
Overcast
Fog And Mist
52°F / 11°C 48°F / 9°C 88% 30.18 in
(1022 mb)
N 3.5 mph
(N 6 kph)
- 3SM
09:53
Overcast
Fog And Mist
50°F / 10°C 48°F / 9°C 94% 30.18 in
(1022 mb)
NNW 4.6 mph
(NNW 7 kph)
- 2 1/2SM
09:51
Overcast
Fog And Mist
50°F / 10°C 48°F / 9°C 94% 30.18 in
(1022 mb)
NNW 4.6 mph
(NNW 7 kph)
- 2SM
09:42
Overcast
Fog And Mist
50°F / 10°C 48°F / 9°C 94% 30.18 in
(1022 mb)
NNW 4.6 mph
(NNW 7 kph)
- 1 3/4SM
09:27
Overcast
Fog And Mist
50°F / 10°C 48°F / 9°C 94% 30.18 in
(1022 mb)
NW 3.5 mph
(NW 6 kph)
- 1 3/4SM
09:11
Overcast
Fog And Mist
50°F / 10°C 48°F / 9°C 94% 30.18 in
(1022 mb)
NW 3.5 mph
(NW 6 kph)
- 2 1/2SM
08:53
Overcast
Fog And Mist
50°F / 10°C 48°F / 9°C 94% 30.18 in
(1022 mb)
Calm - 3SM
07:53
Overcast
Fog And Mist
50°F / 10°C 46°F / 8°C 88% 30.15 in
(1021 mb)
N 3.5 mph
(N 6 kph)
- 4SM
07:11
Overcast
Fog And Mist
50°F / 10°C 48°F / 9°C 94% 30.18 in
(1022 mb)
Calm - 5SM
07:02
Overcast
Fog And Mist
50°F / 10°C 48°F / 9°C 94% 30.18 in
(1022 mb)
Calm - 5SM
06:53
Overcast
Fog And Mist
50°F / 10°C 48°F / 9°C 94% 30.15 in
(1021 mb)
Calm - 5SM
06:22
Overcast
Fog And Mist
50°F / 10°C 48°F / 9°C 94% 30.15 in
(1021 mb)
Calm - 3SM
05:53
Overcast
Fog And Mist
50°F / 10°C 48°F / 9°C 94% 30.15 in
(1021 mb)
Calm - 3SM
05:25
Overcast
Fog And Mist
48°F / 9°C 48°F / 9°C 100% 30.15 in
(1021 mb)
Calm - 4SM
05:18
Overcast
Fog And Mist
50°F / 10°C 48°F / 9°C 94% 30.15 in
(1021 mb)
Calm - 4SM
04:53
Overcast
Fog And Mist
50°F / 10°C 48°F / 9°C 94% 30.15 in
(1021 mb)
Calm - 5SM
04:17
Overcast
Fog And Mist
50°F / 10°C 48°F / 9°C 94% 30.15 in
(1021 mb)
Calm - 5SM
03:53
Overcast
Fog And Mist
50°F / 10°C 48°F / 9°C 94% 30.15 in
(1021 mb)
Calm - 5SM
02:58
Overcast
Fog And Mist
50°F / 10°C 48°F / 9°C 94% 30.18 in
(1022 mb)
Calm - 6SM
02:53
Overcast
Fog And Mist
50°F / 10°C 46°F / 8°C 88% 30.18 in
(1022 mb)
Calm - 6SM
01:53
Overcast
Fog And Mist
48°F / 9°C 46°F / 8°C 94% 30.18 in
(1022 mb)
ENE 4.6 mph
(ENE 7 kph)
- 5SM
01:42
Overcast
Fog And Mist
48°F / 9°C 48°F / 9°C 100% 30.18 in
(1022 mb)
ENE 4.6 mph
(ENE 7 kph)
- 4SM
00:58
Overcast
Fog And Mist
50°F / 10°C 48°F / 9°C 94% 30.18 in
(1022 mb)
Calm - 4SM
00:53
Overcast
Fog And Mist
50°F / 10°C 48°F / 9°C 94% 30.18 in
(1022 mb)
Calm - 4SM
00:51
Overcast
Fog And Mist
50°F / 10°C 48°F / 9°C 94% 30.18 in
(1022 mb)
Calm - 4SM
Time Weather Temperature Dewpoint Humidity Pressure Winds Precip Visibility


Weather for websites

WeatherForYou.com, LLC is not responsible for any damages or problems caused by this service. Current weather conditions are obtained from the closest station including government and personal stations which may have varying degrees of accuracy. Weather forecasts are derived from the NOAA NDFD. Like all things, this site belongs to Jesus Christ... He just trusts me to maintain it. If you have any questions or comments email webmaster@weatherforyou.com

Copyright © 2015, WeatherForYou.com LLC. All rights reserved.